User: anonymous   Login
Location: Los Gatos B&B
(42.6926°N, 77.0646°W)
Time: 22:11:59
(UTC-04:00)
Language:

SL-16 R/B - Orbit

View from above orbital plane
View from above orbital plane
View from above satellite
View from above satellite

Ground track
Ground track

The orbit data is extracted from the following two-line orbital elements,

1 28353U 04021B   18170.60264378 -.00000308 +00000-0 -13649-3 0  9990
2 28353 071.0001 027.9238 0005636 335.8470 024.2387 14.14210318724096
Epoch (UTC): 19 June 2018 14:27:48
Eccentricity: 0.0005636
inclination: 71.0001°
perigee height: 841 km
apogee height: 849 km
right ascension of ascending node: 27.9238°
argument of perigee: 335.8470°
revolutions per day: 14.14210318
mean anomaly at epoch: 24.2387°
orbit number at epoch: 72409

The dashed part of the orbit path shows where the satellite is in the earth's shadow,  

DLR